EW2795 Weather Reports


time (UTC)temp
C
wind
direction
speed
KPH
gust
KPH
rain 1hr
cm
rain 24hr
cm
rain mn
cm
humidity
%
barometer
mb
20260508134515 11 221 6.4 0.0 0.00 0.00 0.00 67 1012.2
20260508133005 11 215 6.4 0.0 0.00 0.00 0.00 69 1012.0
20260508131547 11 215 4.8 0.0 0.00 0.00 0.00 71 1012.0
20260508130041 10 262 8.0 0.0 0.00 0.00 0.00 71 1012.2
20260508124532 10 217 6.4 0.0 0.00 0.00 0.00 72 1012.2
20260508123022 9 208 6.4 0.0 0.00 0.00 0.00 73 1012.1
20260508121507 9 205 6.4 0.0 0.00 0.00 0.00 75 1011.9
20260508120112 8 205 6.4 0.0 0.00 0.00 0.00 74 1012.0
20260508114539 8 232 4.8 0.0 0.00 0.00 0.00 76 1011.7
20260508113029 7 215 4.8 0.0 0.00 0.00 0.00 78 1011.7
20260508111523 7 218 3.2 0.0 0.00 0.00 0.00 80 1011.8
20260508110029 6 211 3.2 0.0 0.00 0.00 0.00 80 1011.7
20260508104519 6 210 3.2 0.0 0.00 0.00 0.00 81 1011.5
20260508103026 6 210 3.2 0.0 0.00 0.00 0.00 82 1011.4
20260508101508 6 213 1.6 0.0 0.00 0.00 0.00 85 1011.3
20260508100130 5 237 0.0 0.0 0.00 0.00 0.00 87 1011.2
20260508100002 5 237 0.0 0.0 0.00 0.00 0.00 87 1011.2
20260508094548 5 238 0.0 0.0 0.00 0.00 0.00 88 1011.3
20260508093043 5 240 1.6 0.0 0.00 0.00 0.00 90 1011.5
20260508091530 5 242 0.0 0.0 0.00 0.00 0.00 89 1011.6
20260508090018 5 242 0.0 0.0 0.00 0.00 0.00 89 1011.6
20260508084509 5 343 0.0 0.0 0.00 0.00 0.00 88 1011.6
20260508083052 6 343 0.0 0.0 0.00 0.00 0.00 86 1011.7
20260508081601 6 342 0.0 0.0 0.00 0.00 0.00 84 1011.7
20260508080035 7 342 1.6 0.0 0.00 0.00 0.00 83 1011.7
20260508074523 7 250 0.0 0.0 0.00 0.00 0.00 82 1011.5
20260508073014 8 250 0.0 0.0 0.00 0.00 0.00 81 1011.5
20260508071509 8 250 0.0 0.0 0.00 0.00 0.00 78 1011.7
20260508070055 8 250 0.0 0.0 0.00 0.00 0.00 78 1011.7
20260508064553 8 250 0.0 0.0 0.00 0.00 0.00 77 1011.9
20260508063048 8 250 1.6 0.0 0.00 0.00 0.00 74 1012.5
20260508061534 8 227 1.6 0.0 0.00 0.00 0.00 74 1012.5
20260508060037 9 265 6.4 0.0 0.00 0.00 0.00 74 1012.8
20260508054540 7 273 0.0 0.0 0.00 0.00 0.00 85 1012.9
20260508053006 7 273 0.0 0.0 0.00 0.00 0.00 84 1012.3
20260508051600 7 273 0.0 0.0 0.00 0.00 0.00 85 1012.0
20260508051502 7 273 0.0 0.0 0.00 0.00 0.00 85 1012.0
20260508050054 7 273 0.0 0.0 0.00 0.00 0.00 85 1011.9
20260508044548 7 273 0.0 0.0 0.00 0.00 0.00 84 1012.1
20260508043038 7 273 0.0 0.0 0.00 0.00 0.00 83 1012.3
20260508041528 7 273 0.0 0.0 0.00 0.00 0.00 82 1012.2
20260508040018 7 273 0.0 0.0 0.00 0.00 0.00 79 1012.3
20260508034511 7 273 0.0 0.0 0.00 0.00 0.00 79 1012.4
20260508033049 7 273 0.0 0.0 0.00 0.00 0.00 78 1012.3
20260508031552 7 273 0.0 0.0 0.00 0.00 0.00 77 1012.6
20260508030040 8 273 0.0 0.0 0.00 0.00 0.00 76 1012.2
20260508024618 8 273 0.0 0.0 0.00 0.00 0.00 74 1012.2
20260508024503 8 273 0.0 0.0 0.00 0.00 0.00 74 1012.2
20260508023052 8 273 0.0 0.0 0.00 0.00 0.00 74 1012.2
20260508021548 8 273 0.0 0.0 0.00 0.00 0.00 70 1012.2
20260508020048 8 273 0.0 0.0 0.00 0.00 0.00 69 1012.3
20260508014537 9 273 0.0 0.0 0.00 0.00 0.00 69 1012.3
20260508013032 8 258 1.6 0.0 0.00 0.00 0.00 67 1012.2
20260508011530 8 281 0.0 0.0 0.00 0.00 0.00 67 1012.0
20260508010026 9 281 0.0 0.0 0.00 0.00 0.00 67 1012.0
20260508004517 10 281 0.0 0.0 0.00 0.00 0.00 63 1011.9
20260508003055 10 281 0.0 0.0 0.00 0.00 0.00 59 1011.8
20260508001548 11 281 0.0 0.0 0.00 0.00 0.00 55 1011.7
20260508000038 12 281 0.0 0.0 0.00 0.00 0.00 50 1011.4
20260507234521 12 253 3.2 0.0 0.00 0.00 0.00 47 1011.6
20260507233015 13 223 4.8 0.0 0.00 0.00 0.00 44 1011.4
20260507231512 13 242 3.2 0.0 0.00 0.00 0.00 44 1011.3
20260507230004 13 39 4.8 0.0 0.00 0.00 0.00 43 1011.5
20260507224559 13 271 6.4 0.0 0.00 0.00 0.00 45 1011.7
20260507224503 13 257 6.4 0.0 0.00 0.00 0.00 46 1011.6
20260507223057 14 283 4.8 0.0 0.00 0.00 0.00 45 1011.7
20260507223001 14 280 4.8 0.0 0.00 0.00 0.00 45 1011.7
20260507221557 13 240 4.8 0.0 0.00 0.00 0.00 45 1011.8
20260507221501 13 287 4.8 0.0 0.00 0.00 0.00 45 1011.9
20260507220039 13 303 6.4 0.0 0.00 0.00 0.00 44 1011.7
20260507214531 14 228 6.4 0.0 0.00 0.00 0.00 43 1011.7
20260507213015 14 281 6.4 0.0 0.00 0.00 0.00 43 1011.6
20260507211511 13 108 6.4 0.0 0.00 0.00 0.00 45 1011.4
20260507210100 13 264 4.8 0.0 0.00 0.00 0.00 43 1011.5
20260507204551 14 44 6.4 0.0 0.00 0.00 0.00 46 1011.2
20260507203045 14 286 6.4 0.0 0.00 0.00 0.00 47 1011.3
20260507201529 13 234 6.4 0.0 0.00 0.00 0.00 48 1011.6
20260507200024 13 282 8.0 0.0 0.00 0.00 0.00 49 1011.4
20260507194600 13 250 9.7 0.0 0.00 0.00 0.00 50 1011.6
20260507194503 13 122 9.7 0.0 0.00 0.00 0.00 49 1011.6
20260507193059 13 252 9.7 0.0 0.00 0.00 0.00 49 1011.8
20260507193003 13 260 9.7 0.0 0.00 0.00 0.00 49 1011.7
20260507191553 13 199 8.0 0.0 0.00 0.00 0.00 48 1011.7
20260507190035 13 267 11.3 0.0 0.00 0.00 0.00 50 1011.9
20260507184520 12 264 6.4 0.0 0.00 0.00 0.00 56 1012.0
20260507183012 12 237 6.4 0.0 0.00 0.00 0.00 54 1012.1
20260507181506 12 221 8.0 0.0 0.00 0.00 0.00 56 1012.1
20260507180100 12 260 9.7 0.0 0.00 0.00 0.00 56 1012.0
20260507174557 12 293 6.4 0.0 0.00 0.00 0.00 57 1012.2
20260507173042 12 292 8.0 0.0 0.00 0.00 0.00 58 1012.3
20260507171526 12 275 6.4 0.0 0.00 0.00 0.00 54 1012.5
20260507170022 12 221 6.4 0.0 0.00 0.00 0.00 56 1012.4
20260507164508 12 223 9.7 0.0 0.00 0.00 0.00 53 1012.7
20260507163054 12 217 9.7 0.0 0.00 0.00 0.00 56 1012.6
20260507161544 12 269 8.0 0.0 0.00 0.00 0.00 57 1012.5
20260507160044 11 218 6.4 0.0 0.00 0.00 0.00 56 1012.5
20260507154530 11 286 6.4 0.0 0.00 0.00 0.00 56 1012.4
20260507153014 11 220 6.4 0.0 0.00 0.00 0.00 57 1012.5
20260507151506 11 261 8.0 0.0 0.00 0.00 0.00 55 1012.4
20260507150046 11 275 6.4 0.0 0.00 0.00 0.00 58 1012.3
20260507144536 10 261 8.0 0.0 0.00 0.00 0.00 58 1012.3
20260507143026 10 254 8.0 0.0 0.00 0.00 0.00 60 1012.5
20260507141518 10 175 6.4 0.0 0.00 0.00 0.00 60 1012.6
20260507140108 9 264 4.8 0.0 0.00 0.00 0.00 64 1012.6
20260507140006 9 265 4.8 0.0 0.00 0.00 0.00 66 1012.7